EW4321 Weather Reports


time (UTC)temp
F
wind
direction
speed
knots
gust
knots
rain 1hr
in
rain 24hr
in
rain mn
in
humidity
%
barometer
mb
20260504060125 52 239 7.8 12.2 0.00 0.00 0.00 83 1016.0
20260504050603 52 235 8.7 12.2 0.00 0.00 0.00 81 1015.8
20260504050103 52 235 7.8 13.0 0.00 0.00 0.00 81 1015.8
20260504045603 52 230 9.6 13.0 0.00 0.00 0.00 81 1015.8
20260504045103 52 229 8.7 12.2 0.00 0.00 0.00 81 1015.7
20260504044606 52 231 8.7 13.9 0.00 0.00 0.00 81 1015.7
20260504044103 52 229 8.7 13.9 0.00 0.00 0.00 80 1015.8
20260504043625 52 226 7.8 13.0 0.00 0.00 0.00 80 1015.8
20260504043103 52 217 8.7 13.0 0.00 0.00 0.00 79 1015.8
20260504042103 52 229 8.7 14.8 0.00 0.00 0.00 79 1015.7
20260504041603 52 229 10.4 14.8 0.00 0.00 0.00 78 1015.7
20260504041103 52 226 7.8 10.4 0.00 0.00 0.00 78 1015.7
20260504040604 52 221 7.8 11.3 0.00 0.00 0.00 78 1015.7
20260504040124 52 222 7.8 11.3 0.00 0.00 0.00 78 1015.6
20260504035603 52 226 7.0 12.2 0.00 0.00 0.00 79 1015.5
20260504035104 52 228 7.0 12.2 0.00 0.00 0.00 77 1015.5
20260504034103 52 223 7.0 10.4 0.00 0.00 0.00 75 1015.4
20260504033603 52 226 7.0 11.3 0.00 0.00 0.00 75 1015.4
20260504033103 52 221 6.1 11.3 0.00 0.00 0.00 75 1015.4
20260504032604 52 226 7.0 11.3 0.00 0.00 0.00 74 1015.4
20260504032103 52 230 8.7 11.3 0.00 0.00 0.00 74 1015.4
20260504031603 52 233 7.0 12.2 0.00 0.00 0.00 74 1015.4
20260504031103 52 238 7.0 12.2 0.00 0.00 0.00 74 1015.4
20260504030603 52 228 8.7 10.4 0.00 0.00 0.00 73 1015.4
20260504025603 52 232 7.0 11.3 0.00 0.00 0.00 72 1015.3
20260504025146 52 237 7.0 11.3 0.00 0.00 0.00 72 1015.3
20260504024603 53 240 7.8 11.3 0.00 0.00 0.00 70 1015.3
20260504024103 53 241 7.8 11.3 0.00 0.00 0.00 71 1015.4
20260504023604 53 237 7.0 11.3 0.00 0.00 0.00 71 1015.3
20260504023104 53 233 7.0 10.4 0.00 0.00 0.00 72 1015.3
20260504022624 53 234 7.0 11.3 0.00 0.00 0.00 73 1015.3
20260504022103 53 230 7.8 11.3 0.00 0.00 0.00 74 1015.3
20260504021604 53 224 7.8 11.3 0.00 0.00 0.00 74 1015.3
20260504021103 53 230 7.0 10.4 0.00 0.00 0.00 74 1015.3
20260504020604 53 231 7.0 10.4 0.00 0.00 0.00 74 1015.3
20260504020103 53 229 7.0 10.4 0.00 0.00 0.00 73 1015.3
20260504015603 53 231 7.0 10.4 0.00 0.00 0.00 72 1015.2
20260504015104 53 229 7.0 10.4 0.00 0.00 0.00 71 1015.2
20260504014603 53 226 7.0 9.6 0.00 0.00 0.00 72 1015.2
20260504014103 53 233 6.1 9.6 0.00 0.00 0.00 74 1015.1
20260504013603 53 229 6.1 9.6 0.00 0.00 0.00 74 1015.1
20260504013124 53 230 7.0 11.3 0.00 0.00 0.00 73 1015.1
20260504012604 54 225 7.0 11.3 0.00 0.00 0.00 73 1015.0
20260504012103 53 229 7.8 10.4 0.00 0.00 0.00 70 1015.0
20260504011604 53 228 6.1 9.6 0.00 0.00 0.00 72 1015.0
20260504011103 54 234 7.0 8.7 0.00 0.00 0.00 74 1014.9
20260504010603 54 234 5.2 9.6 0.00 0.00 0.00 71 1014.8
20260504005604 54 232 7.0 9.6 0.00 0.00 0.00 67 1014.5
20260504005103 54 234 5.2 7.8 0.00 0.00 0.00 69 1014.5
20260504004606 54 246 6.1 8.7 0.00 0.00 0.00 69 1014.5
20260504004124 54 247 7.0 8.7 0.00 0.00 0.00 68 1014.4
20260504003603 54 243 6.1 7.8 0.00 0.00 0.00 67 1014.4
20260504003104 55 235 5.2 8.7 0.00 0.00 0.00 66 1014.3
20260504002603 55 236 4.3 8.7 0.00 0.00 0.00 65 1014.3
20260504002103 55 246 7.0 9.6 0.00 0.00 0.00 64 1014.2
20260504001603 55 249 6.1 9.6 0.00 0.00 0.00 67 1014.2
20260504001104 55 252 7.0 10.4 0.00 0.00 0.00 68 1014.1
20260504000603 55 257 7.8 10.4 0.00 0.00 0.00 65 1014.2
20260504000103 56 260 8.7 11.3 0.00 0.00 0.00 64 1014.1
20260503235603 56 264 7.8 11.3 0.00 0.00 0.00 65 1014.0
20260503235104 56 268 9.6 14.8 0.00 0.00 0.00 61 1013.9
20260503234603 56 268 10.4 14.8 0.00 0.00 0.00 61 1013.8
20260503234104 56 265 11.3 13.9 0.00 0.00 0.00 58 1013.7
20260503233603 56 266 8.7 13.0 0.00 0.00 0.00 62 1013.7
20260503233103 56 268 11.3 13.9 0.00 0.00 0.00 58 1013.7
20260503232603 57 269 10.4 14.8 0.00 0.00 0.00 58 1013.7
20260503232103 57 275 12.2 14.8 0.00 0.00 0.00 57 1013.7
20260503231603 57 281 11.3 16.5 0.00 0.00 0.00 60 1013.7
20260503231105 57 282 13.0 18.2 0.00 0.00 0.00 59 1013.6
20260503230603 57 278 13.9 18.2 0.00 0.00 0.00 56 1013.6
20260503230103 58 275 15.6 20.9 0.00 0.00 0.00 56 1013.6
20260503225603 58 280 16.5 20.9 0.00 0.00 0.00 56 1013.5
20260503225124 58 273 15.6 20.0 0.00 0.00 0.00 53 1013.5
20260503224604 58 276 15.6 20.9 0.00 0.00 0.00 57 1013.5
20260503223603 58 283 15.6 22.6 0.00 0.00 0.00 55 1013.5
20260503223103 58 288 17.4 25.2 0.00 0.00 0.00 56 1013.4
20260503222603 58 290 20.9 25.2 0.00 0.00 0.00 53 1013.3
20260503222103 58 276 18.2 21.7 0.00 0.00 0.00 54 1013.4
20260503221603 58 290 14.8 22.6 0.00 0.00 0.00 55 1013.4
20260503221103 58 290 18.2 22.6 0.00 0.00 0.00 53 1013.3
20260503220103 58 287 20.0 23.5 0.00 0.00 0.00 51 1013.2
20260503215603 59 286 16.5 24.3 0.00 0.00 0.00 51 1013.2
20260503215103 59 290 20.0 25.2 0.00 0.00 0.00 51 1013.2
20260503214603 59 285 15.6 25.2 0.00 0.00 0.00 50 1013.1
20260503214103 58 295 13.0 18.2 0.00 0.00 0.00 51 1013.1
20260503213602 58 299 12.2 19.1 0.00 0.00 0.00 49 1013.1
20260503213105 59 302 12.2 21.7 0.00 0.00 0.00 53 1013.0
20260503212603 59 299 12.2 26.1 0.00 0.00 0.00 50 1012.9
20260503212125 58 287 20.0 26.1 0.00 0.00 0.00 51 1012.9
20260503211603 59 282 19.1 25.2 0.00 0.00 0.00 51 1012.9
20260503211103 58 284 20.0 26.1 0.00 0.00 0.00 52 1013.0
20260503210604 58 294 15.6 26.1 0.00 0.00 0.00 53 1013.1
20260503205604 58 291 15.6 26.9 0.00 0.00 0.00 51 1013.0
20260503205124 58 300 15.6 26.9 0.00 0.00 0.00 51 1013.1
20260503204603 58 297 13.9 23.5 0.00 0.00 0.00 51 1013.0
20260503204103 58 292 17.4 26.9 0.00 0.00 0.00 51 1013.0
20260503203624 58 273 18.2 26.9 0.00 0.00 0.00 54 1013.0
20260503203103 58 290 14.8 20.9 0.00 0.00 0.00 52 1013.0
20260503202603 58 285 16.5 24.3 0.00 0.00 0.00 50 1013.0
20260503202103 58 285 20.0 24.3 0.00 0.00 0.00 52 1012.9
20260503201604 58 281 18.2 23.5 0.00 0.00 0.00 54 1012.9
20260503201105 58 297 13.0 25.2 0.00 0.00 0.00 56 1012.8
20260503200603 57 274 16.5 25.2 0.00 0.00 0.00 53 1013.0
20260503195603 57 286 18.2 26.1 0.00 0.00 0.00 55 1013.0
20260503195104 57 293 18.2 26.1 0.00 0.00 0.00 50 1013.1
20260503194604 57 293 15.6 21.7 0.00 0.00 0.00 53 1013.2
20260503194103 57 296 13.9 24.3 0.00 0.00 0.00 56 1013.2
20260503193603 57 287 16.5 24.3 0.00 0.00 0.00 54 1013.2
20260503193103 57 294 17.4 24.3 0.00 0.00 0.00 55 1013.2
20260503192603 56 300 15.6 25.2 0.00 0.00 0.00 56 1013.3
20260503192103 57 294 20.0 27.8 0.00 0.00 0.00 56 1013.3
20260503191604 56 295 18.2 27.8 0.00 0.00 0.00 56 1013.4
20260503191103 56 296 20.9 26.9 0.00 0.00 0.00 58 1013.3
20260503190625 56 305 12.2 23.5 0.00 0.00 0.00 57 1013.3
20260503190125 56 293 13.9 22.6 0.00 0.00 0.00 56 1013.5
20260503185603 55 298 12.2 23.5 0.00 0.00 0.00 56 1013.5
20260503185103 56 295 19.1 23.5 0.00 0.00 0.00 58 1013.5
20260503184603 55 284 16.5 20.0 0.00 0.00 0.00 58 1013.6
20260503184103 55 318 10.4 20.9 0.00 0.00 0.00 56 1013.7
20260503183603 55 297 13.9 25.2 0.00 0.00 0.00 57 1013.7
20260503183105 55 289 14.8 26.1 0.00 0.00 0.00 54 1013.7
20260503182625 55 298 13.0 26.1 0.00 0.00 0.00 58 1013.7
20260503182103 56 292 17.4 25.2 0.00 0.00 0.00 57 1013.7
20260503181604 56 287 20.9 25.2 0.00 0.00 0.00 60 1013.7
20260503181103 55 301 9.6 25.2 0.00 0.00 0.00 57 1013.8
20260503180603 54 321 10.4 25.2 0.00 0.00 0.00 60 1013.8
20260503175603 55 283 17.4 26.1 0.00 0.00 0.00 59 1013.7
20260503175103 55 298 14.8 26.9 0.00 0.00 0.00 56 1013.8
20260503174103 54 296 14.8 24.3 0.00 0.00 0.00 61 1013.8
20260503173603 54 293 15.6 24.3 0.00 0.00 0.00 58 1013.7
20260503173103 53 320 12.2 18.2 0.00 0.00 0.00 58 1013.9
20260503172603 53 288 14.8 22.6 0.00 0.00 0.00 63 1013.9
20260503172103 53 286 16.5 23.5 0.00 0.00 0.00 60 1013.8
20260503171603 55 288 20.0 24.3 0.00 0.00 0.00 58 1013.7
20260503171103 54 294 13.0 24.3 0.00 0.00 0.00 59 1013.8
20260503170624 54 283 14.8 18.2 0.00 0.00 0.00 61 1013.7
20260503150603 52 293 16.5 21.7 0.00 0.00 0.00 65 1014.2
20260503131103 49 300 12.2 20.0 0.00 0.00 0.00 73 1013.8
20260503130603 49 324 14.8 20.0 0.00 0.00 0.00 69 1013.8
20260503130104 49 316 10.4 21.7 0.00 0.00 0.00 72 1013.7
20260503110603 46 318 8.7 17.4 0.00 0.00 0.00 78 1012.8
20260503081603 49 328 10.4 15.6 0.00 0.00 0.00 74 1010.7
20260503081102 49 322 11.3 15.6 0.00 0.00 0.00 73 1010.7
20260503080603 50 324 12.2 15.6 0.00 0.00 0.00 72 1010.7
20260503072603 50 325 10.4 14.8 0.00 0.00 0.00 74 1010.4
20260503072102 50 323 8.7 14.8 0.00 0.00 0.00 73 1010.5
20260503071603 50 316 9.6 14.8 0.00 0.00 0.00 74 1010.6
20260503071102 50 316 9.6 15.6 0.00 0.00 0.00 74 1010.6
20260503070603 50 304 7.0 15.6 0.00 0.00 0.00 76 1010.7